Etusivu
METAR-TAF:

METAR-TAF

Lentoasemat :

Nampa, Idaho, Yhdysvallat

Leveyspiiri: 43-34-53N, Pituuspiiri: 116-31-23W, korkeus merenpinnasta: 773 m

Tämänhetkinen sää

Tämä raportti tehtiin 9 minuuttia sitten, kello 11.15 UTC
Tuuli 4 kn etelästä/kaakosta
Lämpötila 16°C
Kosteus 88%
Ilmanpaine 1013 hPa
Näkyvyys: 16.1 km

METAR: KMAN 291115Z AUTO 15004KT 10SM 16/14 A2991 RMK A01

Aika: 05:24 (11:24 UTC)


TAF: puuttuu

Säähavainnot ja -ennusteet yli 4000 lentoasemalta (METAR- ja TAF-raportit).

Käytössä olevat sääasemat on merkitty karttaan keltaisilla ja punaisilla pisteillä.

Aseta hiiri pisteen päälle nähdäksesi sääaseman nimen.

Klikkaa sitten nähdäksesi säähavainnot ja -ennusteet.

Kartan vaihtaminen: klikkaa mustalla rastilla varustettuja vihreitä pisteitä, niin voit zoomata sisään; viivalla varustettua vihreää pistettä, niin voit zoomata ulos tai vihreitä nuolia, niin pääset viereisille kartoille.


METAR-TAF: